Weather History for Taunton, MA

Change the Weather History Date:

Tuesday, April 15, 2014

  Actual Average Record
Temperature  
Mean Temperature 58 °F -  
Max Temperature 70 °F 58 °F 79 °F (1960)
Min Temperature 46 °F 33 °F 23 °F (1957)
Degree Days  
Heating Degree Days 7    
Growing Degree Days 8 (Base 50)    
Moisture  
Dew Point 56 °F    
Average Humidity 83    
Maximum Humidity 90    
Minimum Humidity 59    
Precipitation  
Precipitation 1.41 in - - ()
Sea Level Pressure  
Sea Level Pressure 29.75 in    
Wind  
Wind Speed 12 mph (SSW)    
Max Wind Speed 23 mph    
Max Gust Speed 41 mph    
Visibility 6 miles    
Events Rain    
Averages and records for this station are not official NWS values.
T = Trace of Precipitation, MM = Missing Value Source: NWS Daily Summary

Daily Weather History Graph

Daily Weather History Graph

Search for Another Location

Airport:

Trip Planner

Search our weather history database for the weather conditions in past years. The results will help you decide how hot, cold, wet, or windy it might be!

Date:

Astronomy

Apr. 15, 2014 Rise Set
Actual Time 6:03 AM EDT 7:25 PM EDT
Civil Twilight 5:34 AM EDT 7:54 PM EDT
Nautical Twilight 5:00 AM EDT 8:28 PM EDT
Astronomical Twilight 4:23 AM EDT 9:05 PM EDT
Moon 8:03 PM EDT (4/15) 6:09 AM EDT (4/15)
Length of Visible Light 14h 19m
Length of Day
13h 21m
Full, 100% of the Moon is Illuminated
Apr 15
Full
Apr 22
Last Quarter
Apr 29
New
May 6
First Quarter
May 14
Full

Hourly Weather History & Observations

Time (EDT) Temp. Dew Point Humidity Pressure Visibility Wind Dir Wind Speed Gust Speed Precip Events Conditions
12:06 AM 64.0 °F 55.9 °F 75% 29.95 in 10.0 mi SSW 9.2 mph - N/A   Overcast
12:52 AM 62.1 °F 55.0 °F 78% 29.94 in 10.0 mi SSW 11.5 mph 23.0 mph 0.00 in   Overcast
1:52 AM 64.9 °F 55.9 °F 73% 29.92 in 10.0 mi SSW 13.8 mph 25.3 mph 0.00 in Rain Light Rain
2:52 AM 64.0 °F 55.9 °F 75% 29.92 in 10.0 mi SSW 15.0 mph 27.6 mph 0.00 in Rain Light Rain
3:52 AM 62.1 °F 55.9 °F 80% 29.91 in 10.0 mi SW 9.2 mph - 0.01 in   Overcast
4:40 AM 62.1 °F 55.9 °F 80% 29.91 in 10.0 mi SSW 6.9 mph 20.7 mph 0.00 in Rain Light Rain
4:52 AM 61.0 °F 55.9 °F 83% 29.91 in 6.0 mi SSW 6.9 mph - 0.01 in Rain Light Rain
5:26 AM 61.0 °F 57.0 °F 87% 29.90 in 10.0 mi SSW 11.5 mph 21.9 mph 0.00 in Rain Light Rain
5:52 AM 60.1 °F 55.9 °F 86% 29.89 in 9.0 mi South 11.5 mph 21.9 mph 0.00 in   Overcast
6:27 AM 59.0 °F 55.9 °F 90% 29.89 in 2.0 mi South 8.1 mph 19.6 mph 0.05 in Rain Light Rain
6:45 AM 60.1 °F 57.0 °F 90% 29.88 in 7.0 mi South 9.2 mph 18.4 mph 0.06 in Rain Light Rain
6:52 AM 60.1 °F 57.0 °F 90% 29.88 in 10.0 mi South 8.1 mph 18.4 mph 0.06 in   Overcast
7:40 AM 62.1 °F 57.9 °F 86% 29.86 in 2.0 mi South 11.5 mph 20.7 mph 0.02 in Rain Light Rain
7:50 AM 62.6 °F 57.2 °F 82% 29.86 in 6.0 mi South 10.4 mph 18.4 mph 0.02 in Rain Light Rain
7:52 AM 62.1 °F 57.9 °F 86% 29.86 in 8.0 mi South 11.5 mph 18.4 mph 0.02 in Rain Light Rain
8:28 AM 63.0 °F 59.0 °F 87% 29.85 in 6.0 mi South 9.2 mph 23.0 mph 0.00 in Rain Light Rain
8:52 AM 63.0 °F 59.0 °F 87% 29.85 in 3.0 mi South 9.2 mph 23.0 mph 0.01 in Rain Light Rain
9:06 AM 63.0 °F 59.0 °F 87% 29.84 in 5.0 mi South 13.8 mph 24.2 mph 0.00 in Rain Light Rain
9:13 AM 63.0 °F 57.9 °F 84% 29.83 in 7.0 mi South 10.4 mph 23.0 mph 0.00 in Rain Light Rain
9:52 AM 63.0 °F 57.0 °F 81% 29.83 in 10.0 mi South 15.0 mph 29.9 mph 0.00 in   Overcast
10:52 AM 66.9 °F 55.9 °F 68% 29.81 in 10.0 mi South 21.9 mph 33.4 mph N/A   Overcast
11:52 AM 70.0 °F 55.0 °F 59% 29.77 in 10.0 mi South 17.3 mph 32.2 mph N/A   Mostly Cloudy
12:52 PM 69.1 °F 55.9 °F 63% 29.74 in 10.0 mi South 23.0 mph 35.7 mph N/A   Overcast
1:52 PM 64.9 °F 57.0 °F 75% 29.72 in 9.0 mi SSW 16.1 mph 41.4 mph 0.01 in Rain Light Rain
2:52 PM 63.0 °F 57.9 °F 84% 29.69 in 2.0 mi South 13.8 mph 31.1 mph 0.09 in Rain Rain
2:59 PM 63.0 °F 57.9 °F 84% 29.68 in 3.0 mi South 20.7 mph 39.1 mph 0.00 in Rain Light Rain
3:38 PM 63.0 °F 57.9 °F 84% 29.67 in 1.8 mi South 21.9 mph 39.1 mph 0.11 in Rain Heavy Rain
3:46 PM 62.6 °F 57.2 °F 82% 29.66 in 1.8 mi South 20.7 mph 39.1 mph 0.14 in Rain Light Rain
3:49 PM 62.6 °F 57.2 °F 82% 29.65 in 3.0 mi South 19.6 mph 39.1 mph 0.14 in Rain Light Rain
3:52 PM 62.1 °F 57.9 °F 86% 29.65 in 5.0 mi South 16.1 mph 39.1 mph 0.15 in Rain Light Rain
4:15 PM 63.0 °F 57.9 °F 84% 29.65 in 10.0 mi SSW 15.0 mph 29.9 mph 0.01 in   Overcast
4:52 PM 64.9 °F 57.0 °F 75% 29.66 in 10.0 mi South 17.3 mph 28.8 mph 0.01 in   Overcast
5:07 PM 64.0 °F 57.9 °F 80% 29.65 in 4.0 mi South 11.5 mph 33.4 mph 0.02 in Rain Light Rain
5:34 PM 63.0 °F 57.9 °F 84% 29.65 in 2.5 mi SSW 12.7 mph 35.7 mph 0.06 in Rain Rain
5:52 PM 62.1 °F 57.9 °F 86% 29.65 in 1.2 mi South 13.8 mph 34.5 mph 0.18 in Rain Heavy Rain
5:58 PM 62.1 °F 57.9 °F 86% 29.65 in 2.0 mi SSW 15.0 mph 29.9 mph 0.02 in Rain Rain
6:07 PM 62.1 °F 57.9 °F 86% 29.65 in 4.0 mi South 17.3 mph 35.7 mph 0.03 in Rain Light Rain
6:52 PM 60.1 °F 55.9 °F 86% 29.65 in 8.0 mi SSW 13.8 mph 36.8 mph 0.09 in Rain Light Rain
7:52 PM 63.0 °F 59.0 °F 87% 29.62 in 10.0 mi South 12.7 mph 24.2 mph 0.05 in Rain Light Rain
8:52 PM 63.0 °F 59.0 °F 87% 29.62 in 9.0 mi South 19.6 mph 36.8 mph 0.05 in Rain Light Rain
9:40 PM 62.1 °F 57.9 °F 86% 29.63 in 4.0 mi SW 13.8 mph 27.6 mph 0.18 in Rain Heavy Rain
9:44 PM 61.0 °F 57.9 °F 90% 29.63 in 2.5 mi SW 15.0 mph 27.6 mph 0.25 in Rain Rain
9:48 PM 60.8 °F 57.2 °F 88% 29.63 in 3.0 mi SW 13.8 mph 24.2 mph 0.25 in Rain Rain
9:52 PM 60.1 °F 57.0 °F 90% 29.63 in 3.0 mi SSW 15.0 mph 24.2 mph 0.27 in Rain Light Rain
10:21 PM 59.0 °F 55.9 °F 90% 29.63 in 2.5 mi SSW 11.5 mph 17.3 mph 0.17 in Rain Rain
10:29 PM 59.0 °F 55.0 °F 87% 29.63 in 4.0 mi SW 9.2 mph - 0.20 in Rain Rain
10:52 PM 52.0 °F 48.0 °F 86% 29.66 in 6.0 mi West 12.7 mph 20.7 mph 0.25 in Rain Light Rain
11:19 PM 50.0 °F 46.0 °F 86% 29.69 in 5.0 mi NW 13.8 mph 27.6 mph 0.06 in Rain Rain
11:34 PM 46.9 °F 43.0 °F 86% 29.70 in 3.0 mi NW 8.1 mph 24.2 mph 0.12 in Rain Heavy Rain
11:52 PM 46.9 °F 43.0 °F 86% 29.73 in 6.0 mi WNW 9.2 mph 20.7 mph 0.15 in Rain Rain